STARLINK-30863, 59027

Orbit data source: Space-Track

STARLINK-30863, 59027 is a payload satellite owned by SpaceX/Seattle (US) in LEO that was launched on Sun, 25 Feb 2024 UTC via an FALCON 9 launch vehicle from the Air Force Eastern Test Range (AFETR). Payload-class satellites include a variety of spacecraft equipped with specific instruments for various scientific and technological missions. These include communications satellites like Starlink; space stations such as the ISS; scientific satellites like the Hubble; Earth observation satellites from companies like Planet Labs, Umbra, and HawkEye 360; GPS; miniature CubeSats for education and research; and military/defense satellites.

Loading next visibility...
Identifier
59027, 2024-038E
Orbit
LEO
Country
Flag of USUS
Related business
Manufacturer
SpaceX/Seattle
Mission
Operational Commercial Communications
Bus & Motor
STARLINK V2M, Unknown motor
Mass
730 kg wet, ~700 kg dry
Launch date (UTC)
2024-02-25 (2 years ago)
Launch vehicle
FALCON 9
Launch site
Air Force Eastern Test Range (AFETR)
Object type
Payload
Rocket body
Debris
Shape & HBR
Box + 2 Pan, 17.7 m
Radar Cross Section
33.884 m², Large (>1 m²)

Expand to show TLE details & history
Last TLE update: 2 days ago

TLE from 2 days ago
0 STARLINK-30863
1 59027U 24038E   26171.02453328 -.00000990  00000-0 -26472-4 0  9999
2 59027  43.0012 169.5297 0001348 280.3986  79.6714 15.27566160130294
Epoch: 2026-06-20T00:35Z
TLE epoch observation values (Epoch: 2026-06-20T00:35:19.675Z)
Latitude
0.00001°
Longitude
-107.54736°
Altitude
482.7 km
Speed
7.626 km/s
True Right ascension
11h 18m 07s
True Declination
0° 00' 00"
Sunlit
Object was in daylight at epoch
Visualization orbit readout
Latitude
Unknown
Longitude
Unknown
Altitude
Unknown
Speed
Unknown
Apparent Right ascension
Unknown
Apparent Declination
Unknown
Sunlit
N/A
Visualization observer readout
Local Sidereal Time
23:20:36
Azimuth
Unknown
Elevation
Unknown
Doppler factor
Unknown
Orbital elements
Apogee altitude
485.961 km
Perigee altitude
484.11 km
Semi-major axis
6,863.172 km
Eccentricity
0.00013
Inclination
43.0012°
RAAN
169.5297°
Arg. of periapsis
280.3986°
True anomaly
79.6866°
Mean anomaly
79.6714°
Eccentric anomaly
79.679°
Mean motion
3.8173 °/min
Orbital period
94.31 mins
BSTAR
-0.000026472
Loading maneuver chart data...
Computing Atmospheric mass density...
Loading historical data...
Loading historical data...
Loading historical data...
Loading historical data...
Loading historical data...
Loading historical data...
Loading historical data...

Documentation

Showing up to 5 results
|